Regional Weather Roundup
Issued by NWS Goodland, KS

Home | Current Version | Previous Version | Graphics & Text | Print | Product List | Glossary On
Versions: 1 2 3 4 5 6 7 8 9 10 11 12 13 14 15 16 17 18 19 20 21 22 23 24 25 26 27 28 29 30 31 32 33 34 35 36 37 38 39 40 41 42 43 44 45 46 47 48 49 50
000
ASUS43 KGLD 301108
RWRGLD

GOODLAND FORECAST AREA HOURLY WEATHER ROUNDUP
NATIONAL WEATHER SERVICE GOODLAND KS
500 AM MDT SUN AUG 30 2015

...OFFICIAL OBSERVATIONS...

CITY           SKY/WX    TMP DP  RH WIND       PRES   REMARKS
GOODLAND KS    CLEAR     62  49  62 SW14      30.08S
HILL CITY KS   CLEAR     57  56  96 W5        30.05F
IMPERIAL NEB   PTCLDY    61  46  57 SW8       30.04S
MCCOOK NEB     CLEAR     56  51  84 SE5       30.04S
AKRON CO       PTCLDY    63  45  51 S12       30.08S
BURLINGTON CO  CLEAR     60  46  59 S10       30.11F
LIMON CO       PTCLDY    46  44  93 CALM      30.16F
$$

...UNOFFICIAL OBSERVATIONS...

CITY           SKY/WX    TMP DP  RH WIND       PRES   REMARKS
COLBY KS       CLEAR     57  52  82 S7        30.08S
GOVE KS          N/A     50  32  50 MISG        N/A
LENORA KS        N/A     58  32  37 MISG        N/A
NORTON KS      CLEAR     54  48  82 S3        30.04S
SHARON SPRINGS   N/A     60  51  73 S9          N/A
YUMA CO          N/A     64  47  55 SW12        N/A
$$


USA.gov is the U.S. government's official web portal to all federal, state and local government web resources and services.